GW0686 Weather Reports


Display with metric or nautical units.
time (UTC)temp
F
wind
direction
speed
MPH
gust
MPH
rain 1hr
in
rain 24hr
in
rain mn
in
humidity
%
barometer
mb
20221209164603 52 0 0.0 1.0 0.00 0.00 0.00 67 1023.2
20221209163110 52 28 0.0 4.0 0.00 0.00 0.00 67 1023.3
20221209161554 52 0 0.0 4.0 0.00 0.00 0.00 66 1023.5
20221209160041 52 0 0.0 2.0 0.00 0.00 0.00 69 1023.5
20221209154559 51 0 0.0 4.0 0.00 0.00 0.00 69 1023.7
20221209153058 50 63 0.0 5.0 0.00 0.00 0.00 69 1023.9
20221209151603 50 0 1.0 5.0 0.00 0.00 0.00 71 1024.0
20221209150047 50 326 2.0 9.0 0.00 0.00 0.00 70 1024.1
20221209144553 49 0 1.0 7.0 0.00 0.00 0.00 71 1023.9
20221209143101 49 30 0.0 4.0 0.00 0.00 0.00 73 1024.0
20221209141557 49 0 0.0 4.0 0.00 0.00 0.00 74 1023.9
20221209140056 48 45 1.0 5.0 0.00 0.00 0.00 75 1023.9
20221209134600 48 328 1.0 4.0 0.00 0.00 0.00 75 1023.8
20221209133059 48 61 0.0 3.0 0.00 0.00 0.00 77 1023.6
20221209131558 48 215 0.0 4.0 0.00 0.00 0.00 78 1023.5
20221209130053 48 0 0.0 4.0 0.00 0.00 0.00 78 1023.2
20221209124556 48 336 0.0 1.0 0.00 0.00 0.00 78 1023.2
20221209123104 48 0 0.0 4.0 0.00 0.00 0.00 78 1023.3
20221209121555 48 20 0.0 3.0 0.00 0.00 0.00 76 1023.1
20221209120056 48 0 0.0 4.0 0.00 0.00 0.00 77 1022.9
20221209114553 49 44 0.0 3.0 0.00 0.00 0.00 78 1022.8
20221209113044 49 309 1.0 7.0 0.00 0.00 0.00 78 1023.1
20221209111547 49 0 0.0 4.0 0.00 0.00 0.00 80 1022.8
20221209110056 49 0 0.0 2.0 0.00 0.00 0.00 81 1022.4
20221209104541 49 304 0.0 6.0 0.00 0.00 0.00 82 1022.6
20221209103047 50 0 0.0 4.0 0.00 0.00 0.00 84 1022.5
20221209101541 50 71 1.0 7.0 0.00 0.00 0.00 84 1022.4
20221209100042 50 0 0.0 6.0 0.00 0.00 0.00 85 1022.2
20221209094547 50 15 0.0 4.0 0.00 0.00 0.00 84 1022.3
20221209093042 50 0 0.0 6.0 0.00 0.00 0.00 85 1022.2
20221209091548 50 288 0.0 4.0 0.00 0.00 0.00 86 1022.4
20221209090045 50 0 0.0 3.0 0.00 0.00 0.00 86 1022.5
20221209084541 50 0 0.0 3.0 0.00 0.00 0.00 86 1022.5
20221209083103 50 0 0.0 3.0 0.00 0.00 0.00 86 1022.2
20221209081543 50 0 0.0 5.0 0.00 0.00 0.00 86 1022.3
20221209080056 51 0 0.0 1.0 0.00 0.00 0.00 85 1022.6
20221209074601 51 0 0.0 1.0 0.00 0.00 0.00 85 1022.7
20221209073058 51 331 0.0 3.0 0.00 0.00 0.00 84 1022.9
20221209071546 51 0 0.0 1.0 0.00 0.00 0.00 85 1022.8
20221209070047 51 0 0.0 2.0 0.00 0.00 0.00 86 1022.7
20221209064551 51 0 0.0 1.0 0.00 0.00 0.00 85 1022.7
20221209063045 51 0 0.0 1.0 0.00 0.00 0.00 84 1022.6
20221209061546 51 288 0.0 2.0 0.00 0.00 0.00 84 1022.5
20221209060049 51 318 0.0 3.0 0.00 0.00 0.00 84 1022.8
20221209054601 51 0 0.0 1.0 0.00 0.00 0.00 85 1023.0
20221209053043 51 0 0.0 1.0 0.00 0.00 0.00 85 1023.0
20221209051545 51 0 0.0 1.0 0.00 0.00 0.00 85 1022.9
20221209050105 51 0 0.0 1.0 0.00 0.00 0.00 85 1022.9
20221209044555 51 0 0.0 1.0 0.00 0.00 0.00 86 1023.2
20221209043102 51 0 0.0 1.0 0.00 0.00 0.00 86 1023.1
20221209041552 51 0 0.0 0.0 0.00 0.00 0.00 85 1022.9
20221209040051 51 0 0.0 0.0 0.00 0.00 0.00 85 1023.0
20221209034558 51 0 0.0 1.0 0.00 0.00 0.00 85 1022.9
20221209033043 51 0 0.0 0.0 0.00 0.00 0.00 85 1022.7
20221209031549 52 0 0.0 1.0 0.00 0.00 0.00 84 1022.7
20221209030050 52 0 0.0 0.0 0.00 0.00 0.00 85 1022.8
20221209024543 52 0 0.0 1.0 0.00 0.00 0.00 84 1023.2
20221209023046 52 0 0.0 1.0 0.00 0.00 0.00 84 1022.8
20221209021548 52 0 0.0 0.0 0.00 0.00 0.00 85 1023.1
20221209020045 52 0 0.0 0.0 0.00 0.00 0.00 84 1022.9
20221209014540 52 0 0.0 1.0 0.00 0.00 0.00 84 1023.3
20221209013050 52 0 0.0 0.0 0.00 0.00 0.00 84 1023.4
20221209011551 53 0 0.0 1.0 0.00 0.00 0.00 84 1023.4
20221209010045 53 0 0.0 0.0 0.00 0.00 0.00 84 1023.1
20221209004538 53 0 0.0 1.0 0.00 0.00 0.00 84 1023.0
20221209003038 53 0 0.0 1.0 0.00 0.00 0.00 84 1022.9
20221209001543 53 0 0.0 2.0 0.00 0.00 0.00 84 1023.1
20221209000056 53 0 0.0 2.0 0.00 0.00 0.00 83 1023.3
20221208234543 53 0 0.0 3.0 0.00 0.00 0.00 83 1023.0
20221208233044 53 52 0.0 4.0 0.00 0.00 0.00 83 1022.9
20221208231543 54 0 0.0 2.0 0.00 0.00 0.00 83 1022.8
20221208230052 54 0 0.0 1.0 0.00 0.00 0.00 83 1023.1
20221208224549 54 0 0.0 0.0 0.00 0.03 0.00 83 1023.1
20221208223043 54 0 0.0 0.0 0.00 0.03 0.00 83 1023.0
20221208221601 55 0 0.0 0.0 0.00 0.03 0.00 82 1022.9
20221208220049 55 0 0.0 0.0 0.00 0.03 0.00 79 1022.8
20221208214543 56 0 0.0 2.0 0.00 0.03 0.00 77 1022.4
20221208213045 56 0 0.0 1.0 0.00 0.03 0.00 77 1022.7
20221208211550 56 239 0.0 1.0 0.00 0.03 0.00 77 1022.4
20221208210058 57 0 0.0 3.0 0.00 0.03 0.00 77 1022.4
20221208204544 57 298 0.0 2.0 0.00 0.03 0.00 77 1022.5
20221208203040 57 0 0.0 3.0 0.00 0.03 0.00 77 1022.9
20221208201607 58 28 1.0 3.0 0.00 0.03 0.00 76 1023.1
20221208200054 58 0 0.0 3.0 0.00 0.03 0.00 77 1022.9
20221208194548 59 28 0.0 4.0 0.00 0.03 0.00 77 1022.5
20221208193048 59 0 1.0 4.0 0.00 0.03 0.00 76 1022.3
20221208191545 59 0 0.0 4.0 0.00 0.03 0.00 76 1022.5
20221208190101 59 63 1.0 4.0 0.00 0.03 0.00 76 1022.4
20221208184545 59 0 0.0 2.0 0.00 0.09 0.00 76 1022.3
20221208183042 59 0 0.0 2.0 0.00 0.09 0.00 78 1022.7
20221208181554 59 306 1.0 4.0 0.00 0.09 0.00 78 1022.9
20221208180050 59 350 0.0 6.0 0.00 0.09 0.00 78 1023.2
20221208174546 59 0 0.0 2.0 0.00 0.09 0.00 78 1023.2
20221208173046 60 346 1.0 6.0 0.00 0.09 0.00 78 1023.1
20221208171548 59 0 1.0 3.0 0.00 0.09 0.00 78 1023.0
20221208170106 60 69 0.0 4.0 0.00 0.09 0.00 81 1023.1